EHI
15 15 16 16 13 10 8 7 9 10 10 10 10 11 13 15 18 20 20 19 18 17 16 16 16 15 16 17 17 19 20 17 12 8 5 5 6 6 6 6 5 4 4
13 15 18 18 16 13 11 10 12 14 14 14 14 14 15 16 18 20 20 18 17 17 16 16 16 16 17 18 18 17 17 16 13 9 7 7 9 9 8 6 4 4 5
10 14 18 21 22 21 19 18 18 18 19 20 20 19 18 17 18 19 20 18 17 17 17 16 16 16 17 18 18 16 15 16 15 11 9 9 10 11 11 7 5 7 7
9 13 17 21 24 25 25 25 23 22 22 22 23 22 20 19 19 20 20 19 17 17 17 16 15 14 15 16 17 15 15 16 15 11 10 10 12 14 12 7 7 9 10
11 12 16 19 22 25 28 28 27 25 23 22 22 22 20 18 16 16 17 17 18 18 18 16 14 13 12 11 10 10 12 13 13 11 10 10 12 15 13 8 7 9 10
18 16 16 19 21 24 27 29 29 26 24 22 21 20 18 14 9 7 10 14 17 18 18 17 15 12 10 6 4 4 5 8 9 10 10 9 10 13 14 11 9 10 10
27 23 21 22 23 25 27 28 28 25 23 22 20 19 18 13 5 2 4 9 13 15 16 15 13 10 9 8 6 4 4 5 6 7 8 8 8 11 14 16 14 13 12
32 28 25 25 26 26 28 29 27 25 23 23 22 21 20 14 6 1 2 6 10 12 12 12 10 9 9 10 9 7 7 7 5 4 5 6 5 7 11 14 14 14 12
33 31 28 28 28 29 30 31 29 26 24 24 23 21 20 15 7 2 2 5 8 9 9 8 8 8 7 7 8 7 8 9 7 4 3 3 2 2 5 8 11 11 10
32 31 29 28 28 30 32 33 31 27 25 25 24 22 21 16 8 2 2 5 6 6 7 5 4 4 4 3 4 6 7 8 8 7 5 4 4 3 4 6 9 10 9
29 28 27 25 25 28 33 35 33 28 25 23 21 21 20 16 9 3 2 3 3 3 4 3 2 2 1 1 2 3 5 6 8 9 8 8 8 8 7 7 8 10 11
27 26 26 24 23 26 31 33 32 27 23 20 18 15 14 13 9 4 2 1 1 1 2 2 1 1 0 0 0 1 1 3 7 11 11 11 11 10 9 8 8 9 10
26 26 27 25 24 25 27 28 26 23 19 17 16 13 11 11 9 5 2 0 0 0 1 1 1 0 0 0 0 0 1 3 8 12 13 12 12 11 11 11 8 6 6
27 27 27 26 24 24 24 22 20 18 16 15 15 13 12 11 9 5 4 3 2 2 1 1 1 0 0 0 1 2 3 6 9 12 13 12 11 10 12 11 9 6 5
29 28 27 26 23 23 22 19 16 14 13 13 13 13 12 10 7 5 5 6 5 4 3 3 3 2 1 2 5 6 7 7 8 10 11 11 10 9 10 10 9 8 7
29 28 27 25 25 25 24 22 16 11 8 7 8 10 9 6 4 3 3 4 4 4 5 6 6 5 5 5 7 7 7 8 8 9 10 11 11 10 9 9 9 9 9
27 27 27 27 26 27 28 27 22 14 7 4 3 4 3 2 1 1 1 1 2 3 6 7 7 7 8 8 7 6 6 8 9 10 10 11 11 10 9 9 9 9 9
26 26 27 27 26 26 29 29 26 21 15 8 3 1 0 0 0 0 1 2 3 4 6 7 7 7 8 7 5 5 6 7 8 8 8 8 8 8 7 7 7 7 7
23 22 22 23 23 23 25 26 25 23 20 13 7 2 1 1 1 1 2 4 5 5 6 7 7 7 6 6 4 4 5 6 6 5 5 5 5 5 5 5 5 5 5
17 15 15 17 18 19 20 21 22 21 17 13 8 4 2 2 2 2 2 3 4 5 6 7 8 7 7 6 5 4 4 4 4 4 4 4 4 3 3 3 3 4 4
12 11 10 11 14 14 16 18 19 18 15 12 9 5 3 3 3 3 3 3 4 6 7 7 7 7 7 7 6 5 4 3 4 5 5 4 2 1 2 2 3 4 4
10 9 9 10 10 11 12 14 16 15 13 12 10 5 2 3 4 4 5 5 5 6 7 6 6 6 6 6 6 6 5 4 4 5 5 3 1 1 1 2 3 4 4
8 8 10 11 11 10 10 11 12 12 12 12 9 4 2 4 4 4 4 5 5 6 6 5 4 4 5 6 6 6 5 4 4 5 4 1 0 1 2 4 4 4 3
9 9 10 12 12 11 9 9 9 9 10 11 8 3 2 3 3 2 3 4 5 6 5 4 3 4 5 6 6 4 3 3 3 3 3 1 0 2 3 4 4 3 1
9 9 9 11 11 10 9 8 7 7 8 9 7 5 3 2 1 1 1 2 4 4 4 3 3 3 4 4 4 3 1 1 1 2 2 1 0 2 3 3 3 1 0
8 8 8 9 10 10 9 7 6 6 7 7 8 7 5 2 1 1 1 1 2 3 3 3 3 3 3 4 3 2 0 0 0 1 1 0 1 2 2 2 1 0 0
Wind_Speed
7 7 6 6 6 6 5 5 4 4 4 5 4 4 5 4 4 4 5 4 5 5 5 5 5 5 4 4 4 4 4 5 5 4 3 1 3 4 3 4 5 5 5
7 7 6 6 6 6 5 5 5 5 5 5 5 5 6 5 5 5 5 5 5 5 5 5 5 4 5 5 4 4 4 4 6 6 4 3 4 4 4 5 5 4 4
6 7 6 6 6 6 5 5 5 5 5 5 5 5 5 5 5 5 5 5 6 5 5 5 5 4 5 4 5 5 5 5 5 6 6 3 4 3 4 5 6 4 6
6 6 6 6 6 6 5 5 5 5 5 5 5 5 5 5 5 5 5 5 6 5 5 5 5 5 4 5 5 5 5 5 5 6 5 4 4 3 4 5 5 5 5
6 6 6 6 6 6 5 5 5 5 5 5 5 5 5 5 4 4 5 6 5 5 5 5 4 3 3 4 5 4 5 5 5 5 5 5 4 3 4 5 5 4 4
6 5 5 5 6 6 6 5 5 5 5 5 5 5 5 4 1 2 5 6 5 6 5 5 4 5 4 5 4 5 5 6 6 6 5 5 5 5 4 5 5 5 5
5 5 5 5 5 5 6 6 6 5 5 5 5 5 5 4 3 4 5 6 6 5 5 5 5 3 4 5 5 7 7 7 7 8 8 7 6 5 6 7 5 6 6
5 5 5 5 5 5 5 5 5 5 5 5 5 6 5 4 3 3 4 7 7 6 6 6 5 5 5 5 6 5 6 6 7 7 7 8 7 6 6 7 7 7 6
5 5 5 5 5 5 5 5 4 4 4 4 4 5 4 3 4 4 4 5 5 6 5 5 5 5 2 3 5 6 6 6 5 6 6 7 6 6 6 5 5 6 6
4 4 4 4 4 4 4 5 4 4 4 4 4 5 5 4 4 5 5 5 5 5 4 4 4 5 2 3 5 6 6 6 5 4 5 6 7 7 8 7 6 6 6
3 3 4 4 4 4 3 3 3 4 4 4 4 4 5 4 4 5 6 5 4 5 4 4 2 4 4 4 6 6 6 6 6 5 5 4 4 4 4 5 5 6 6
3 3 4 4 3 3 3 3 4 4 5 5 4 5 4 4 4 5 7 6 6 5 5 4 2 3 4 5 6 5 5 6 6 5 4 4 4 4 3 4 4 5 5
3 3 3 4 4 3 4 4 4 4 4 4 4 4 4 3 3 6 8 8 7 6 4 3 2 3 5 6 7 7 6 6 5 5 5 5 4 4 4 3 4 5 7
3 4 4 4 4 4 4 4 3 3 4 4 4 4 4 3 3 2 3 4 6 7 6 4 5 7 7 6 5 6 6 5 5 5 5 5 4 4 4 4 4 4 5
3 3 4 4 3 3 3 2 3 2 2 4 4 4 4 4 2 2 3 4 3 3 4 4 5 5 5 5 4 4 4 4 5 5 5 5 5 5 5 4 4 5 5
3 4 3 3 3 4 3 3 2 3 2 3 3 5 4 2 1 1 3 4 3 3 4 5 5 5 5 4 4 4 4 4 4 5 5 5 5 5 5 4 4 5 5
3 3 3 3 3 4 3 3 3 3 5 5 6 6 5 4 3 3 4 4 4 5 5 5 5 5 5 4 4 5 4 4 4 5 5 5 5 5 5 5 5 5 6
3 2 3 3 3 3 3 3 3 3 3 3 5 7 7 6 5 5 4 3 3 4 5 5 5 5 5 5 5 5 5 4 4 5 5 5 5 6 6 6 5 5 6
3 2 2 2 3 3 3 3 3 3 3 3 3 2 5 6 6 5 5 4 4 4 4 5 5 5 5 5 5 5 5 5 5 5 5 5 5 5 5 6 5 5 6
2 2 3 4 3 3 3 3 3 3 3 3 3 2 1 3 3 2 3 4 4 4 5 5 4 5 5 5 4 4 5 4 4 4 4 4 5 5 6 7 6 5 5
2 2 4 4 3 3 3 3 3 3 3 3 2 1 1 3 3 3 3 3 4 4 4 4 4 5 5 4 4 5 5 5 4 4 4 4 5 5 5 5 5 5 5
3 3 2 2 2 2 3 3 3 3 3 3 2 1 3 3 3 3 3 3 3 3 3 3 4 4 4 4 4 5 5 5 4 4 4 4 5 5 5 5 5 4 5
3 3 2 2 3 2 3 3 3 3 3 2 2 2 2 3 3 3 3 3 3 3 3 3 4 4 3 3 4 4 4 4 4 4 5 5 5 5 5 5 6 6 5
3 3 3 3 3 3 3 3 2 3 2 2 2 2 2 2 3 3 3 3 4 4 3 3 3 4 5 4 3 3 3 5 6 5 6 6 6 6 6 6 6 6 6
3 3 3 3 3 3 2 2 2 2 2 2 3 3 2 2 3 3 3 3 4 3 4 3 3 3 4 4 3 3 4 4 4 6 6 6 7 7 7 7 6 6 6
3 3 3 2 2 2 2 2 2 2 2 3 3 3 3 2 2 3 3 3 3 3 3 3 4 4 5 3 3 3 1 2 3 6 6 5 6 6 6 6 7 6 6
Wind_Direction
200 203 209 208 208 211 215 218 217 222 218 224 225 226 230 230 232 237 249 244 247 250 250 245 251 269 272 266 254 253 256 263 266 270 263 227 235 263 241 246 238 231 200
195 199 205 209 209 212 211 214 217 219 220 219 225 227 231 232 234 238 243 247 250 252 257 258 258 255 255 266 266 261 259 262 263 271 268 249 239 244 250 254 250 241 245
196 200 200 206 207 210 210 209 211 214 218 222 223 228 234 237 237 240 244 250 254 255 256 256 259 261 260 262 263 263 260 255 256 262 263 257 249 244 249 250 250 249 253
198 201 200 205 208 208 207 207 209 212 214 220 226 231 235 239 242 244 245 250 255 256 256 255 257 260 262 263 258 261 267 266 255 257 260 253 244 237 246 251 247 232 244
202 207 205 205 207 209 207 208 209 212 214 215 224 227 231 233 241 252 253 249 253 255 254 255 257 274 292 283 289 284 274 268 263 258 257 258 256 251 252 257 260 257 243
204 208 203 204 206 208 207 206 209 213 216 215 220 225 229 234 198 258 266 263 259 258 259 260 253 232 238 233 255 272 282 274 276 272 266 265 263 263 268 265 265 262 261
200 201 199 204 208 211 212 208 212 216 216 221 224 227 232 229 193 220 245 261 258 259 260 261 268 264 251 257 233 224 236 244 256 270 274 273 273 273 272 265 262 265 271
194 195 196 202 206 208 215 217 218 219 221 226 229 232 238 220 182 217 236 245 254 254 253 253 259 267 269 277 273 269 264 248 241 246 266 272 275 278 267 264 265 258 259
196 199 200 205 208 211 216 219 220 223 226 228 228 228 234 217 181 201 236 247 246 250 251 253 257 258 260 275 268 270 273 270 243 241 255 265 276 270 270 268 258 254 259
203 203 202 207 211 214 219 222 217 217 225 230 227 229 231 229 186 194 230 255 259 261 250 248 245 258 241 237 260 267 268 273 280 261 248 248 249 237 226 241 256 259 268
206 199 196 204 213 210 207 209 211 216 222 231 236 237 234 233 197 195 217 260 270 270 267 258 234 186 217 233 255 265 272 282 279 273 266 259 253 248 235 233 247 259 267
200 203 198 202 216 197 195 202 208 218 219 222 230 241 237 224 215 194 200 233 275 271 271 273 269 170 215 236 247 266 271 268 267 270 270 268 265 262 257 252 248 257 265
193 202 202 202 211 209 202 207 211 216 233 236 237 244 249 244 202 186 201 220 238 258 276 314 296 233 230 229 233 243 247 252 262 265 268 270 271 272 267 251 244 244 249
202 203 205 206 208 203 216 216 222 230 242 248 253 260 261 250 249 214 219 221 222 236 256 246 225 230 239 253 236 225 235 255 267 267 271 272 273 266 258 260 260 258 258
208 211 215 214 211 214 218 234 235 239 264 269 273 269 268 265 282 308 265 251 254 253 256 248 249 243 238 239 245 247 248 242 245 258 266 268 266 265 264 261 263 269 267
211 215 222 227 218 230 222 217 177 222 201 228 263 283 287 310 340 271 270 279 273 244 241 248 251 254 256 257 256 253 252 257 262 265 267 268 269 269 267 264 262 261 264
225 226 240 238 229 233 231 236 234 212 209 223 232 238 250 273 264 244 246 256 248 212 231 250 258 264 269 269 266 266 266 268 271 269 270 273 275 274 274 269 263 261 263
237 222 241 243 245 250 251 249 248 255 253 243 217 208 218 230 236 235 228 223 222 217 244 257 261 263 265 268 269 270 271 269 263 266 271 273 272 273 273 271 266 269 271
256 251 259 272 262 258 256 256 255 259 266 270 276 201 193 205 211 218 213 240 255 250 252 258 264 267 267 267 271 273 273 273 273 271 272 275 277 276 275 275 272 261 263
251 253 264 270 269 263 255 257 265 263 263 265 270 283 245 224 228 212 219 252 266 271 273 274 275 277 277 277 277 277 276 274 273 273 279 279 277 276 272 271 273 270 265
270 240 231 257 264 270 273 270 268 267 266 266 273 289 283 267 268 272 259 253 262 274 280 284 288 285 280 277 275 270 269 271 272 275 276 275 275 273 272 271 271 275 277
274 269 258 263 270 274 281 275 270 265 264 269 274 225 193 253 276 281 284 285 286 284 285 285 286 291 297 292 286 283 279 281 287 286 283 282 280 278 278 275 275 274 270
269 269 266 265 265 248 250 260 263 264 267 271 274 279 273 281 285 292 300 302 302 303 300 294 291 294 298 301 303 302 303 308 311 308 296 286 279 274 271 270 270 272 269
275 275 277 275 267 263 262 266 269 273 275 276 278 278 282 292 296 305 309 311 309 306 307 307 309 316 318 319 317 328 347 340 322 303 294 288 282 279 276 274 272 271 269
277 276 277 276 272 271 274 279 283 284 288 290 284 285 293 300 305 308 305 305 306 308 311 310 308 311 310 316 331 347 13 356 325 312 289 280 279 279 279 277 276 277 273
283 279 280 279 280 283 277 272 270 275 281 287 289 293 295 299 308 307 310 314 313 316 321 325 328 323 317 315 329 342 350 322 310 304 292 283 283 282 283 278 277 273 270